Stations météo

réclame
Mon MeteoGroup
Fürstenzell, Allemagne (10895): Température de l'air & dewpoint: 05.12.2019 02:00:00 - 11.12.2019 02:00:00 (CET)Fürstenzell, Allemagne (10895): Température de l'air 5cm & Température de l'air -5cm: 05.12.2019 02:00:00 - 11.12.2019 02:00:00 (CET)Fürstenzell, Allemagne (10895): Température de l'air -20cm & Température de l'air -100cm: 05.12.2019 02:00:00 - 11.12.2019 02:00:00 (CET)Fürstenzell, Allemagne (10895): Vitesse du vent & gusts: 05.12.2019 02:00:00 - 11.12.2019 02:00:00 (CET)Fürstenzell, Allemagne (10895): Direction du vent: 05.12.2019 02:00:00 - 11.12.2019 02:00:00 (CET)Fürstenzell, Allemagne (10895): reduced air pressure: 05.12.2019 02:00:00 - 11.12.2019 02:00:00 (CET)Fürstenzell, Allemagne (10895): visibility: 05.12.2019 02:00:00 - 11.12.2019 02:00:00 (CET)Fürstenzell, Allemagne (10895): Ensoleillement: 05.12.2019 02:00:00 - 11.12.2019 02:00:00 (CET)Fürstenzell, Allemagne (10895): Quantités de précipitations: 05.12.2019 02:00:00 - 11.12.2019 02:00:00 (CET)
Date & Time tt [°C] td [°C] tt 5cm [°C] tt -5cm [°C] tt -20cm [°C] tt -100cm [°C] ff [km/h] ff [knt] fx [km/h] fx [knt] dd ppp [hPa] vv [km] sd [min] rr [mm]
11.12.2019 02:00:00 -4,0 -4,3 -4,3 0,8 2,7 6,5 6 3 9 5 ENE 1026,2 0,1 0 0,0
11.12.2019 01:00:00 -2,1 -2,6 -4,2 0,8 2,8 6,5 6 4 8 4 NE 1026,5 6 0 0,0
11.12.2019 00:00:00 -1,1 -2,3 -4,1 0,9 2,9 6,5 4 2 9 5 ESE 1026,9 17 0 0,0
10.12.2019 23:00:00 -0,4 -1,9 -2,3 1,0 3,1 6,5 5 3 9 5 S 1027,2 22 0 0,0
10.12.2019 22:00:00 -0,5 -1,2 -2,4 1,1 3,2 6,5 5 3 9 5 SSE 1028,0 11 0 0,0
10.12.2019 21:00:00 0,3 -0,7 -3,2 1,3 3,3 6,5 6 3 10 6 S 1028,1 18 0 0,0
10.12.2019 20:00:00 1,1 -0,4 -0,9 1,9 3,4 6,5 5 3 8 5 SE 1028,1 18 0 0,0
10.12.2019 19:00:00 1,7 -0,3 0,5 2,3 3,5 6,5 3 2 10 5 W 1028,3 24 0 0,0
10.12.2019 18:00:00 1,7 -0,1 1,2 2,4 3,6 6,5 5 3 12 7 W 1028,3 20 0 0,0
10.12.2019 17:00:00 2,0 -0,3 1,6 2,6 3,6 6,5 8 4 21 11 W 1028,5 20 0 0,0
10.12.2019 16:00:00 2,2 -0,3 1,9 3,0 3,6 6,5 16 9 24 13 W 1028,5 26 0 0,0
10.12.2019 15:00:00 2,4 -0,2 2,4 3,2 3,6 6,5 15 8 25 14 W 1028,4 31 0 0,0
10.12.2019 14:00:00 2,5 -0,2 2,9 3,3 3,5 6,5 17 9 27 15 W 1028,1 29 0 0,0
10.12.2019 13:00:00 2,3 0,1 2,6 3,1 3,5 6,5 17 9 30 16 W 1028,1 28 0 0,0
10.12.2019 12:00:00 1,9 0,3 2,1 2,9 3,5 6,5 21 11 35 19 W 1027,9 15 0 0,0
10.12.2019 11:00:00 2,0 -0,4 2,4 2,7 3,5 6,5 21 11 31 17 W 1027,6 29 0 0,0
10.12.2019 10:00:00 1,9 0,2 2,0 2,4 3,6 6,5 19 11 35 19 W 1026,5 36 14 0,0
10.12.2019 09:00:00 1,5 -0,2 0,5 2,1 3,7 6,5 22 12 35 19 W 1025,4 35 13 0,0
10.12.2019 08:00:00 2,1 0,2 1,2 2,5 3,8 6,5 19 10 34 18 WNW 1024,0 15 0 0,0
10.12.2019 07:00:00 2,5 0,9 1,7 2,8 3,9 6,5 18 10 30 16 WNW 1022,2 39 0 0,0
10.12.2019 06:00:00 2,9 1,4 2,0 3,2 3,9 6,5 21 12 31 17 NW 1020,5 50 0 0,0
10.12.2019 05:00:00 3,4 2,7 2,8 3,5 3,9 6,5 20 11 34 18 WNW 1018,7 31 0 0,1
10.12.2019 04:00:00 3,8 3,2 3,4 3,6 3,9 6,5 17 9 34 19 W 1017,6 17 0 0,0
10.12.2019 03:00:00 4,0 3,4 3,6 3,6 3,9 6,5 20 11 31 17 W 1016,4 15 0 0,2
10.12.2019 02:00:00 4,0 3,5 3,6 3,5 3,9 6,5 16 9 34 18 W 1015,3 8 0 0,1
10.12.2019 01:00:00 3,9 3,2 3,5 3,6 3,9 6,5 24 13 38 20 W 1014,0 18 0 0,4
10.12.2019 00:00:00 4,1 3,2 3,5 3,5 3,9 6,5 17 9 27 14 W 1012,6 17 0 0,4
09.12.2019 23:00:00 4,6 2,7 3,7 3,4 3,9 6,5 18 10 28 15 W 1011,5 12 0 0,0
09.12.2019 22:00:00 5,0 1,9 4,0 3,4 4,0 6,5 16 9 29 16 W 1010,5 32 0 0,0
09.12.2019 21:00:00 5,3 1,7 4,7 3,2 4,1 6,5 19 10 30 16 WSW 1009,5 75 0 0,0
09.12.2019 20:00:00 5,0 1,3 3,8 3,0 4,2 6,5 18 10 37 20 WSW 1008,6 75 0 0,0
09.12.2019 19:00:00 5,5 1,3 4,0 3,5 4,3 6,5 24 13 39 21 WSW 1007,6 75 0 0,0
09.12.2019 18:00:00 5,6 2,6 4,7 4,0 4,3 6,5 10 6 19 10 SSW 1007,1 53 0 0,0
09.12.2019 17:00:00 5,8 2,5 4,5 4,4 4,3 6,5 9 5 13 7 S 1006,6 42 0 0,0
09.12.2019 16:00:00 6,7 2,3 5,1 5,0 4,2 6,5 9 5 14 8 SSW 1006,2 58 35 0,0
09.12.2019 15:00:00 7,1 2,3 7,0 5,1 4,1 6,5 8 4 15 8 SSW 1006,0 68 8 0,0
09.12.2019 14:00:00 6,4 3,0 6,5 5,0 3,9 6,5 7 4 11 6 SW 1006,3 46 0 0,0
09.12.2019 13:00:00 6,6 2,4 6,4 4,8 3,8 6,5 8 4 13 7 S 1006,7 67 0 0,0
09.12.2019 12:00:00 6,2 3,0 6,2 4,4 3,7 6,5 8 5 14 8 SSW 1007,3 63 0 0,0
09.12.2019 11:00:00 5,8 3,0 5,5 3,9 3,7 6,5 7 4 14 7 SSW 1007,9 51 0 0,0
09.12.2019 10:00:00 5,6 2,8 4,9 3,6 3,7 6,5 9 5 19 11 SW 1008,2 46 0 0,0
09.12.2019 09:00:00 5,1 3,1 4,6 3,3 3,7 6,5 14 8 22 12 SW 1008,2 49 0 0,0
09.12.2019 08:00:00 4,4 3,0 3,0 3,3 3,7 6,5 6 3 13 7 SW 1008,2 53 0 0,0
09.12.2019 07:00:00 4,9 3,3 4,0 3,5 3,7 6,5 7 4 16 8 SSW 1008,1 48 0 0,0
09.12.2019 06:00:00 4,5 3,6 3,8 3,5 3,7 6,5 8 4 14 7 S 1008,0 39 0 0,0
09.12.2019 05:00:00 5,6 4,1 4,8 3,6 3,6 6,5 10 5 24 13 SW 1008,2 74 0 0,1
09.12.2019 04:00:00 5,6 4,2 4,8 3,6 3,6 6,5 18 10 30 16 WNW 1008,0 13 0 0,0
09.12.2019 03:00:00 4,1 2,1 3,5 3,4 3,6 6,5 12 7 22 12 SW 1007,4 29 0 0,0
09.12.2019 02:00:00 3,9 2,2 3,1 3,4 3,6 6,5 11 6 20 11 SSW 1007,5 39 0 0,6
09.12.2019 01:00:00 3,8 2,0 3,7 3,4 3,6 6,5 8 5 16 9 SW 1007,8 36 0 0,0
09.12.2019 00:00:00 4,5 1,7 3,7 3,4 3,6 6,5 8 5 18 10 SSW 1008,0 48 0 0,0
08.12.2019 23:00:00 6,6 1,2 5,7 3,3 3,6 6,5 6 4 18 10 S 1007,8 73 0 0,0
08.12.2019 22:00:00 6,4 1,7 5,3 3,1 3,6 6,5 11 6 17 9 SE 1008,3 74 0 0,0
08.12.2019 21:00:00 5,8 1,8 4,3 2,9 3,7 6,5 7 4 16 9 ESE 1009,1 75 0 0,0
08.12.2019 20:00:00 5,6 2,1 3,5 2,9 3,8 6,6 8 4 13 7 SSE 1009,9 62 0 0,0
08.12.2019 19:00:00 5,7 2,2 3,6 3,3 3,9 6,6 8 5 16 9 SSW 1010,7 67 0 0,0
08.12.2019 18:00:00 6,4 2,1 4,4 3,8 4,0 6,6 9 5 17 9 S 1010,7 70 0 0,0
08.12.2019 17:00:00 6,5 2,1 3,8 4,5 3,9 6,6 7 4 15 8 SSW 1011,2 68 0 0,0
08.12.2019 16:00:00 7,4 3,0 4,4 5,3 3,8 6,6 5 3 21 12 SW 1011,3 75 30 0,0
08.12.2019 15:00:00 8,2 2,7 7,7 5,9 3,5 6,6 13 7 32 17 WSW 1011,6 71 54 0,0
08.12.2019 14:00:00 8,8 2,7 9,5 6,2 3,2 6,6 19 10 36 20 WSW 1012,2 59 60 0,0
08.12.2019 13:00:00 8,9 3,3 10,2 5,8 2,9 6,6 16 9 27 14 WSW 1013,3 75 60 0,0
08.12.2019 12:00:00 7,4 3,6 8,7 4,8 2,6 6,6 7 4 14 8 SSW 1014,7 50 60 0,0
08.12.2019 11:00:00 6,1 2,5 7,3 3,5 2,5 6,6 9 5 16 9 SSW 1015,9 73 60 0,0
08.12.2019 10:00:00 4,8 2,1 5,5 2,1 2,5 6,6 6 3 11 6 SW 1016,8 54 59 0,0
08.12.2019 09:00:00 3,6 1,5 2,5 1,7 2,6 6,6 9 5 16 9 SW 1017,2 63 32 0,0
08.12.2019 08:00:00 3,7 1,6 1,9 1,7 2,6 6,6 13 7 18 10 WSW 1017,3 75 0 0,0
08.12.2019 07:00:00 3,8 1,7 2,2 2,1 2,6 6,6 12 6 18 10 SSW 1017,5 73 0 0,0
08.12.2019 06:00:00 4,2 2,3 3,0 2,4 2,6 6,6 12 6 18 10 SSW 1017,8 70 0 0,0
08.12.2019 05:00:00 4,5 2,6 3,8 2,5 2,5 6,7 7 4 18 10 SSW 1018,3 59 0 0,0
08.12.2019 04:00:00 4,9 2,7 3,9 2,5 2,5 6,7 13 7 23 12 WSW 1018,6 62 0 0,0
08.12.2019 03:00:00 5,3 3,0 4,5 2,5 2,4 6,7 15 8 26 14 WSW 1019,2 60 0 0,0
08.12.2019 02:00:00 4,9 3,2 4,2 2,4 2,4 6,7 14 7 21 11 SW 1019,7 56 0 0,0
08.12.2019 01:00:00 4,3 3,1 3,4 2,4 2,3 6,7 13 7 19 10 SW 1020,0 43 0 0,0
08.12.2019 00:00:00 5,1 3,2 4,2 2,4 2,2 6,7 14 8 23 13 SW 1020,4 56 0 0,0
07.12.2019 23:00:00 5,4 3,5 4,4 2,5 2,1 6,7 15 8 30 16 WSW 1020,3 56 0 0,0
07.12.2019 22:00:00 5,5 4,1 4,9 2,3 2,0 6,7 18 10 27 15 WSW 1020,1 51 0 0,0
07.12.2019 21:00:00 5,6 3,9 4,8 2,2 1,9 6,7 18 10 24 13 WSW 1019,8 75 0 0,0
07.12.2019 20:00:00 6,1 4,0 5,2 2,2 1,8 6,7 15 8 25 13 WSW 1020,0 69 0 0,0
07.12.2019 19:00:00 6,1 3,8 5,2 2,0 1,7 6,7 16 9 23 12 WSW 1019,3 75 0 0,0
07.12.2019 18:00:00 6,0 3,7 5,0 1,7 1,5 6,8 13 7 21 11 WSW 1019,2 48 0 0,0
07.12.2019 17:00:00 6,1 4,1 5,1 1,4 1,4 6,8 13 7 28 15 WSW 1018,5 54 0 0,0
07.12.2019 16:00:00 6,5 4,6 5,1 1,0 1,4 6,8 19 10 37 20 WSW 1017,7 73 4 0,0
07.12.2019 15:00:00 6,1 4,7 5,1 0,2 1,4 6,8 12 7 20 11 WSW 1017,6 62 1 0,2
07.12.2019 14:00:00 5,4 3,9 4,5 0,2 1,4 6,8 10 6 18 10 WNW 1017,7 33 0 0,0
07.12.2019 13:00:00 7,2 3,7 6,4 0,2 1,4 6,8 17 9 39 21 W 1016,9 62 0 0,0
07.12.2019 12:00:00 7,2 3,9 5,9 0,2 1,4 6,8 22 12 38 20 WSW 1016,5 70 0 0,0
07.12.2019 11:00:00 5,8 3,4 4,6 0,2 1,4 6,8 20 11 30 16 WSW 1016,9 51 6 0,0
07.12.2019 10:00:00 2,2 2,0 1,7 0,2 1,4 6,8 4 2 12 6 S 1017,6 12 4 0,0
07.12.2019 09:00:00 2,2 1,7 0,5 0,2 1,4 6,9 8 4 18 10 SSW 1017,3 27 0 0,0
07.12.2019 08:00:00 1,1 1,1 0,0 0,2 1,4 6,9 7 4 13 7 SSW 1017,0 20 0 0,0
07.12.2019 07:00:00 -0,1 -0,1 -0,1 0,2 1,4 6,9 5 3 8 5 S 1017,2 11 0 0,0
07.12.2019 06:00:00 -1,0 -1,0 -0,8 0,2 1,4 6,9 7 4 19 10 S 1017,0 3,4 0 0,0
07.12.2019 05:00:00 -0,8 -1,0 -0,6 0,1 1,4 6,9 10 5 17 9 SSW 1016,6 4,9 0 1,5
07.12.2019 04:00:00 -2,6 -3,0 -1,3 0,1 1,4 6,9 4 2 7 4 SW 1017,5 1,9 0 0,8
07.12.2019 03:00:00 -3,7 -4,3 -2,8 0,1 1,4 6,9 3 2 10 5 SSE 1018,3 3,7 0 0,0
07.12.2019 02:00:00 -4,5 -4,9 -4,2 0,1 1,5 6,9 4 2 6 4 E 1018,6 0,1 0 0,0
07.12.2019 01:00:00 -4,4 -4,8 -4,0 0,2 1,5 6,9 3 2 6 3 E 1018,8 0,2 0 0,0
07.12.2019 00:00:00 -4,1 -4,4 -3,7 0,2 1,5 6,9 5 3 7 4 ENE 1019,3 0,1 0 0,0
06.12.2019 23:00:00 -3,9 -4,3 -3,2 0,2 1,5 6,9 5 3 7 4 E 1019,5 0,2 0 0,0
06.12.2019 22:00:00 -3,8 -4,0 -3,2 0,2 1,5 7,0 5 3 7 4 ESE 1020,0 0,1 0 0,0
06.12.2019 21:00:00 -3,7 -4,0 -3,2 0,2 1,5 7,0 5 3 7 4 ESE 1020,1 0,1 0 0,0
06.12.2019 20:00:00 -3,4 -3,7 -2,9 0,2 1,5 7,0 4 2 8 4 ENE 1020,4 0,1 0 0,0
06.12.2019 19:00:00 -3,0 -3,3 -2,4 0,2 1,5 7,0 5 3 8 4 ESE 1020,5 0,2 0 0,0
06.12.2019 18:00:00 -2,8 -3,1 -2,4 0,2 1,5 7,0 4 2 7 4 ENE 1020,8 0,2 0 0,0
06.12.2019 17:00:00 -2,6 -2,9 -2,2 0,2 1,5 7,0 5 3 8 4 E 1020,9 0,3 0 0,0
06.12.2019 16:00:00 -2,7 -3,1 -2,0 0,2 1,5 7,0 4 2 6 4 ENE 1021,3 0,2 0 0,0
06.12.2019 15:00:00 -2,7 -3,1 -1,6 0,2 1,5 7,0 3 2 8 4 E 1021,6 0,4 0 0,0
06.12.2019 14:00:00 -2,6 -3,0 -1,7 0,2 1,5 7,0 2 1 7 4 S 1022,1 0,3 0 0,0
06.12.2019 13:00:00 -2,4 -2,7 -1,6 0,2 1,5 7,0 3 2 9 5 ENE 1022,8 0,3 0 0,0
06.12.2019 12:00:00 -2,6 -3,1 -1,7 0,2 1,5 7,1 4 2 10 5 NE 1023,7 0,4 0 0,0
06.12.2019 11:00:00 -2,9 -3,2 -1,9 0,1 1,5 7,1 6 3 10 5 ENE 1024,5 0,4 0 0,0
06.12.2019 10:00:00 -3,0 -3,3 -2,4 0,1 1,5 7,1 6 3 9 5 ENE 1024,9 0,3 0 0,0
06.12.2019 09:00:00 -3,0 -3,2 -2,6 0,1 1,5 7,1 4 2 8 4 ENE 1024,8 0,2 0 0,0
06.12.2019 08:00:00 -3,0 -3,3 -2,5 0,1 1,5 7,1 4 2 7 4 E 1024,7 0,6 0 0,0
06.12.2019 07:00:00 -3,2 -3,4 -2,8 0,1 1,5 7,1 2 1 5 3 WNW 1025,0 0,2 0 0,0
06.12.2019 06:00:00 -3,3 -3,3 -2,7 0,1 1,5 7,1 3 2 7 4 WSW 1024,7 0,1 0 0,0
06.12.2019 05:00:00 -3,4 -3,6 -3,0 0,1 1,5 7,1 3 2 8 4 ENE 1024,7 0,1 0 0,0
06.12.2019 04:00:00 -3,3 -3,5 -2,8 0,1 1,5 7,1 6 3 10 5 SE 1024,6 0,1 0 0,0
06.12.2019 03:00:00 -3,4 -3,7 -2,7 0,2 1,5 7,1 4 2 7 4 SE 1025,0 0,1 0 0,0
06.12.2019 02:00:00 -3,4 -3,6 -3,1 0,2 1,5 7,2 2 1 10 5 ENE 1025,2 0,1 0 0,0
06.12.2019 01:00:00 -3,2 -3,6 -2,8 0,2 1,5 7,2 6 4 9 5 SE 1025,4 0,2 0 0,0
06.12.2019 00:00:00 -3,3 -3,5 -2,9 0,2 1,5 7,2 4 2 10 6 SSE 1025,8 0,2 0 0,0
05.12.2019 23:00:00 -3,2 -3,4 -2,7 0,2 1,5 7,2 4 2 9 5 S 1026,3 0,1 0 0,0
05.12.2019 22:00:00 -3,1 -3,3 -2,8 0,2 1,5 7,2 6 3 9 5 S 1026,3 0,1 0 0,0
05.12.2019 21:00:00 -3,0 -3,3 -2,6 0,2 1,5 7,2 6 4 10 6 SE 1026,5 0,1 0 0,0
05.12.2019 20:00:00 -2,9 -3,2 -2,5 0,2 1,5 7,2 5 3 10 6 SE 1026,4 0,1 0 0,0
05.12.2019 19:00:00 -2,9 -3,0 -2,6 0,2 1,5 7,2 4 2 9 5 S 1026,2 0,1 0 0,0
05.12.2019 18:00:00 -3,0 -3,1 -2,3 0,2 1,5 7,2 3 1 11 6 SSE 1026,1 0,1 0 0,0
05.12.2019 17:00:00 -2,7 -3,0 -2,3 0,2 1,5 7,2 4 2 12 7 S 1025,7 1,3 0 0,0
05.12.2019 16:00:00 -2,4 -2,8 -1,9 0,1 1,5 7,3 6 3 13 7 SSE 1025,4 2,0 0 0,0
05.12.2019 15:00:00 -2,1 -3,0 -1,5 0,1 1,5 7,3 5 3 11 6 S 1025,2 3,2 0 0,0
05.12.2019 14:00:00 -1,7 -3,0 -0,9 0,1 1,5 7,3 5 3 12 6 SSE 1025,2 4,7 0 0,0
05.12.2019 13:00:00 -1,6 -2,8 -0,4 0,1 1,5 7,3 5 3 13 7 SE 1025,6 4,8 0 0,0
05.12.2019 12:00:00 -1,8 -2,8 -0,7 0,1 1,6 7,3 6 4 14 8 SE 1026,1 4,8 0 0,0
05.12.2019 11:00:00 -2,3 -3,1 -1,4 0,0 1,6 7,3 10 5 14 8 SE 1026,3 4,5 0 0,0
05.12.2019 10:00:00 -2,7 -3,6 -2,0 0,0 1,6 7,3 8 4 17 9 ESE 1026,5 4,0 0 0,0
05.12.2019 09:00:00 -2,9 -3,7 -2,4 0,0 1,6 7,3 10 6 17 9 E 1026,4 4,0 0 0,0
05.12.2019 08:00:00 -2,8 -3,6 -2,6 0,0 1,6 7,3 11 6 18 10 SE 1025,9 4,5 0 0,0
05.12.2019 07:00:00 -2,8 -3,5 -2,6 0,0 1,6 7,3 13 7 18 10 ESE 1025,4 3,8 0 0,0
05.12.2019 06:00:00 -2,7 -3,5 -2,6 0,0 1,7 7,4 13 7 24 13 SE 1024,8 4,2 0 0,0
05.12.2019 05:00:00 -2,7 -3,3 -2,6 0,0 1,7 7,4 15 8 25 13 SE 1024,6 3,5 0 0,0
05.12.2019 04:00:00 -2,8 -3,3 -2,8 0,1 1,7 7,4 9 5 25 14 SSE 1024,2 3,2 0 0,0
05.12.2019 03:00:00 -3,0 -3,6 -3,5 0,2 1,7 7,4 8 4 17 9 S 1023,9 3,1 0 0,0
05.12.2019 02:00:00 -2,7 -3,3 -3,2 0,2 1,7 7,4 8 4 15 8 S 1023,8 3,4 0 0,0

tt = Température de l'air
td = dewpoint
tt 5cm = Température de l'air 5cm
tt -5cm = Température de l'air -5cm
tt -20cm = Température de l'air -20cm
tt -100cm = Température de l'air -100cm
ff = Vitesse du vent
fx = gusts
dd = Direction du vent
ppp = reduced air pressure
vv = visibility
sd = Ensoleillement
rr = Quantités de précipitations

stations d'obs. à proximité